User: anonymous   Login
Location: Waldport
(44.4270°N, 124.0680°W)
Time: 01:14:44
(UTC-07:00)
Language:

Cosmos 1570 Rocket - Orbit

View from above orbital plane
View from above orbital plane
View from above satellite
View from above satellite

Ground track
Ground track

The orbit data is extracted from the following two-line orbital elements,

1 15032U 84056B   14304.43344231  .00000243  00000-0  95114-4 0  5270
2 15032 074.0741 030.4007 0016502 072.5792 359.2688 14.34440037589290
Epoch (UTC): 31 October 2014 10:24:09
Eccentricity: 0.0016502
inclination: 74.0741°
perigee height: 765 km
apogee height: 789 km
right ascension of ascending node: 30.4007°
argument of perigee: 72.5792°
revolutions per day: 14.34440037
mean anomaly at epoch: 359.2688°
orbit number at epoch: 58929

The dashed part of the orbit path shows where the satellite is in the earth's shadow,  

DLR